Inverness, FL

5:49 PM EST on November 24, 2017 (GMT -0500)
Inverness

Weather History for KINF - February, 2014

Change the Weather History Date:

Tuesday, February 4, 2014

  Actual Average (KBKV) Record (KBKV)
Temperature  
Mean Temperature 68 °F -  
Max Temperature 82 °F 68 °F 82 °F (1999)
Min Temperature 55 °F 44 °F 32 °F (2009)
Cooling Degree Days 4    
Growing Degree Days 18 (Base 50)    
Moisture  
Dew Point 63 °F    
Average Humidity 86    
Maximum Humidity 100    
Minimum Humidity 54    
Precipitation  
Precipitation 0.00 in - - ()
Sea Level Pressure  
Sea Level Pressure 30.09 in    
Wind  
Wind Speed 1 mph (SSE)    
Max Wind Speed 7 mph    
Max Gust Speed -    
Visibility 6 miles    
Events Fog , Rain    
Averages and records for this station are not official NWS values.
T = Trace of Precipitation, MM = Missing Value Source: NWS Daily Summary

Daily Weather History Graph

Daily Weather History Graph

Search for Another Location

Airport or City:

Trip Planner

Search our weather history database for the weather conditions in past years. The results will help you decide how hot, cold, wet, or windy it might be!

Date:

Astronomy

Feb. 04, 2014 Rise Set
Actual Time 7:15 AM EST 6:10 PM EST
Civil Twilight 6:51 AM EST 6:35 PM EST
Nautical Twilight 6:23 AM EST 7:03 PM EST
Astronomical Twilight 5:55 AM EST 7:31 PM EST
Moon 10:22 AM EST (2/4) 11:31 PM EST (2/4)
Length of Visible Light 11h 44m
Length of Day
10h 55m
Waxing Crescent, 29% of the Moon is Illuminated
Feb 4
Waxing Crescent
Feb 6
First Quarter
Feb 14
Full
Feb 22
Last Quarter
Mar 1
New

Hourly Weather History & Observations

Time (EST) Temp. Heat Index Dew Point Humidity Pressure Visibility Wind Dir Wind Speed Gust Speed Precip Events Conditions
12:15 AM 64.4 °F - 64.4 °F 100% 30.11 in 0.2 mi Calm Calm - N/A Fog Fog
12:35 AM 64.4 °F - 64.4 °F 100% 30.11 in 0.2 mi Calm Calm - N/A Fog Fog
12:55 AM 64.4 °F - 62.6 °F 94% 30.10 in 0.2 mi Calm Calm - N/A Fog Fog
1:15 AM 62.6 °F - 62.6 °F 100% 30.10 in 0.2 mi Calm Calm - N/A Fog Fog
1:35 AM 62.6 °F - 62.6 °F 100% 30.10 in 0.2 mi Calm Calm - N/A Fog Fog
1:55 AM 62.6 °F - 62.6 °F 100% 30.10 in 0.2 mi Calm Calm - N/A Fog Fog
2:15 AM 62.6 °F - 62.6 °F 100% 30.10 in 0.5 mi Calm Calm - N/A Fog Fog
2:35 AM 62.6 °F - 60.8 °F 94% 30.10 in 0.8 mi Calm Calm - N/A   Overcast
2:55 AM 60.8 °F - 60.8 °F 100% 30.10 in 0.5 mi Calm Calm - N/A Fog Fog
3:15 AM 60.8 °F - 60.8 °F 100% 30.10 in 0.5 mi Calm Calm - N/A Fog Fog
3:35 AM 60.8 °F - 59.0 °F 94% 30.10 in 0.5 mi Calm Calm - N/A Fog Fog
3:55 AM 60.8 °F - 59.0 °F 94% 30.10 in 1.0 mi Calm Calm - N/A   Overcast
4:15 AM 59.0 °F - 59.0 °F 100% 30.10 in 0.5 mi Calm Calm - N/A Fog Fog
4:35 AM 59.0 °F - 59.0 °F 100% 30.10 in 0.8 mi Calm Calm - N/A   Overcast
4:55 AM 59.0 °F - 59.0 °F 100% 30.10 in 0.5 mi Calm Calm - N/A Fog Fog
5:15 AM 59.0 °F - 59.0 °F 100% 30.10 in 1.0 mi Calm Calm - N/A   Overcast
5:35 AM 59.0 °F - 59.0 °F 100% 30.10 in 0.2 mi Calm Calm - N/A Fog Fog
5:55 AM 59.0 °F - 57.2 °F 94% 30.09 in 0.2 mi Calm Calm - N/A Fog Fog
6:15 AM 57.2 °F - 57.2 °F 100% 30.09 in 3.0 mi Calm Calm - N/A   Mostly Cloudy
6:35 AM 57.2 °F - 57.2 °F 100% 30.10 in 7.0 mi Calm Calm - N/A   Overcast
6:55 AM 55.4 °F - 55.4 °F 100% 30.11 in 1.0 mi Calm Calm - N/A   Overcast
7:15 AM 55.4 °F - 55.4 °F 100% 30.12 in 1.0 mi ESE 3.5 mph - N/A   Mostly Cloudy
7:35 AM 57.2 °F - 55.4 °F 94% 30.13 in 7.0 mi Calm Calm - N/A   Overcast
7:55 AM 59.0 °F - 59.0 °F 100% 30.14 in 0.2 mi Calm Calm - N/A Fog Fog
8:15 AM 59.0 °F - 59.0 °F 100% 30.14 in 0.2 mi Calm Calm - N/A Fog Fog
8:35 AM 60.8 °F - 60.8 °F 100% 30.14 in 0.2 mi Calm Calm - N/A Fog Fog
8:55 AM 60.8 °F - 60.8 °F 100% 30.14 in 0.5 mi Calm Calm - N/A Rain Light Rain
9:15 AM 60.8 °F - 60.8 °F 100% 30.15 in 0.2 mi Calm Calm - N/A Fog Fog
9:35 AM 60.8 °F - 60.8 °F 100% 30.14 in 0.2 mi Calm Calm - N/A Fog Fog
9:55 AM 60.8 °F - 60.8 °F 100% 30.14 in 0.2 mi Calm Calm - N/A Fog Fog
10:15 AM 62.6 °F - 60.8 °F 94% 30.15 in 0.8 mi Calm Calm - N/A   Overcast
10:35 AM 62.6 °F - 62.6 °F 100% 30.15 in 2.0 mi SSE 4.6 mph - N/A   Overcast
10:55 AM 62.6 °F - 62.6 °F 100% 30.14 in 7.0 mi ESE 3.5 mph - N/A   Overcast
11:15 AM 62.6 °F - 62.6 °F 100% 30.14 in 7.0 mi Calm Calm - N/A   Overcast
11:35 AM 64.4 °F - 64.4 °F 100% 30.13 in 7.0 mi NE 3.5 mph - N/A   Mostly Cloudy
11:55 AM 66.2 °F - 66.2 °F 100% 30.12 in 10.0 mi Calm Calm - N/A   Scattered Clouds
12:15 PM 73.4 °F - 68.0 °F 83% 30.11 in 10.0 mi Calm Calm - N/A   Clear
12:35 PM 77.0 °F - 68.0 °F 74% 30.10 in 10.0 mi ESE 3.5 mph - N/A   Clear
12:55 PM 78.8 °F - 66.2 °F 65% 30.09 in 10.0 mi SE 4.6 mph - N/A   Clear
1:15 PM 80.6 °F 82.3 °F 64.4 °F 58% 30.08 in 10.0 mi South 6.9 mph - N/A   Clear
1:35 PM 80.6 °F 82.3 °F 64.4 °F 58% 30.06 in 10.0 mi Calm Calm - N/A   Scattered Clouds
1:55 PM 80.6 °F 82.3 °F 64.4 °F 58% 30.06 in 10.0 mi Calm Calm - N/A   Overcast
2:15 PM 82.4 °F 83.9 °F 64.4 °F 54% 30.05 in 10.0 mi SE 5.8 mph - N/A   Overcast
2:35 PM 82.4 °F 83.9 °F 64.4 °F 54% 30.04 in 10.0 mi South 6.9 mph - N/A   Overcast
2:55 PM 82.4 °F 83.9 °F 64.4 °F 54% 30.04 in 10.0 mi South 6.9 mph - N/A   Mostly Cloudy
3:15 PM 82.4 °F 83.9 °F 64.4 °F 54% 30.03 in 10.0 mi South 6.9 mph - N/A   Scattered Clouds
3:35 PM 82.4 °F 83.9 °F 64.4 °F 54% 30.03 in 10.0 mi SE 4.6 mph - N/A   Mostly Cloudy
3:55 PM 82.4 °F 83.9 °F 64.4 °F 54% 30.03 in 10.0 mi SE 4.6 mph - N/A   Mostly Cloudy
4:15 PM 82.4 °F 83.9 °F 64.4 °F 54% 30.03 in 10.0 mi SSW 5.8 mph - N/A   Mostly Cloudy
4:35 PM 82.4 °F 83.9 °F 64.4 °F 54% 30.03 in 10.0 mi ESE 3.5 mph - N/A   Overcast
4:55 PM 82.4 °F 83.9 °F 64.4 °F 54% 30.03 in 10.0 mi Calm Calm - N/A   Mostly Cloudy
5:15 PM 82.4 °F 83.9 °F 64.4 °F 54% 30.03 in 10.0 mi Calm Calm - N/A   Mostly Cloudy
5:35 PM 80.6 °F 82.3 °F 64.4 °F 58% 30.03 in 10.0 mi Calm Calm - N/A   Mostly Cloudy
5:55 PM 78.8 °F - 68.0 °F 69% 30.03 in 10.0 mi Calm Calm - N/A   Mostly Cloudy
6:15 PM 77.0 °F - 68.0 °F 74% 30.03 in 10.0 mi Calm Calm - N/A   Mostly Cloudy
6:35 PM 75.2 °F - 66.2 °F 73% 30.04 in 10.0 mi WSW 3.5 mph - N/A   Overcast
7:15 PM 73.4 °F - 66.2 °F 78% 30.05 in 10.0 mi Calm Calm - N/A   Clear
7:35 PM 71.6 °F - 66.2 °F 83% 30.05 in 10.0 mi Calm Calm - N/A   Scattered Clouds
7:55 PM 71.6 °F - 66.2 °F 83% 30.06 in 10.0 mi Calm Calm - N/A   Mostly Cloudy
8:15 PM 69.8 °F - 66.2 °F 88% 30.06 in 10.0 mi Calm Calm - N/A   Scattered Clouds
8:35 PM 69.8 °F - 66.2 °F 88% 30.07 in 10.0 mi Calm Calm - N/A   Scattered Clouds
8:55 PM 69.8 °F - 66.2 °F 88% 30.07 in 10.0 mi Calm Calm - N/A   Mostly Cloudy
9:15 PM 68.0 °F - 64.4 °F 88% 30.07 in 10.0 mi Calm Calm - N/A   Scattered Clouds
9:35 PM 68.0 °F - 66.2 °F 94% 30.08 in 10.0 mi Calm Calm - N/A   Scattered Clouds
9:55 PM 68.0 °F - 64.4 °F 88% 30.08 in 10.0 mi Calm Calm - N/A   Mostly Cloudy
10:15 PM 66.2 °F - 64.4 °F 94% 30.07 in 10.0 mi Calm Calm - N/A   Overcast
10:35 PM 66.2 °F - 64.4 °F 94% 30.08 in 10.0 mi Calm Calm - N/A   Scattered Clouds
10:55 PM 66.2 °F - 64.4 °F 94% 30.07 in 7.0 mi Calm Calm - N/A   Mostly Cloudy
11:15 PM 64.4 °F - 64.4 °F 100% 30.07 in 7.0 mi Calm Calm - N/A   Overcast
11:35 PM 64.4 °F - 64.4 °F 100% 30.06 in 7.0 mi Calm Calm - N/A   Overcast
11:55 PM 64.4 °F - 64.4 °F 100% 30.06 in 7.0 mi Calm Calm - N/A   Overcast